Regional Weather Roundup
Issued by NWS New Orleans/Baton Rouge, LA

Home | Current Version | Previous Version | Text Only | Print | Product List | Glossary On
Versions: 1 2 3 4 5 6 7 8 9 10 11 12 13 14 15 16 17 18 19 20 21 22 23 24 25 26 27 28 29 30 31 32 33 34 35 36 37 38 39 40 41 42 43 44 45 46 47 48 49 50
000
ASUS44 KLIX 241213
RWRLIX
NEW ORLEANS REGIONAL WEATHER ROUNDUP
NATIONAL WEATHER SERVICE NEW ORLEANS LA
600 AM CST FRI FEB 24 2017

NOTE: "FAIR" INDICATES FEW OR NO CLOUDS BELOW 12,000 FEET WITH NO
      SIGNIFICANT WEATHER AND/OR OBSTRUCTIONS TO VISIBILITY.
      SKY/WX - SKY CONDITION AND SIGNIFICANT WEATHER.
      TMP - AIR TEMPERATURE.     DP    - DEWPOINT TEMPERATURE.
      RH  - RELATIVE HUMIDITY.   PRES  - PRESSURE.
      HI  - HEAT INDEX.          WCI   - WIND CHILL INDEX.

*  THESE STATIONS ARE NOT NWS OR FAA STATIONS AND ARE NOT UNDER
   NWS QUALITY CONTROL.

LAZ038-040-048-061>063-065>067-069-241300-
SOUTHEAST LOUISIANA

CITY           SKY/WX    TMP DP  RH WIND       PRES   REMARKS
N.O. AUDUBON   NOT AVBL
N.O. INTL ARPT MOCLDY    62  62 100 SE5       29.78R FOG
6HR MIN TEMP:  60; 6HR MAX TEMP:  66;

N.O. LAKEFRONT CLEAR     64  63  96 SE5       29.79R FOG
6HR MIN TEMP:  63; 6HR MAX TEMP:  66;

N.O. DOWNTOWN*   N/A     66  64  93 VRB3      29.80R
6HR MIN TEMP:  65; 6HR MAX TEMP:  67;

RESERVE*       CLOUDY    65  63  94 E3        29.78S
6HR MIN TEMP:  62; 6HR MAX TEMP:  65;

SLIDELL        FOG       55  55 100 CALM      29.79R VSB 3/4
6HR MIN TEMP:  54; 6HR MAX TEMP:  64;

BATON ROUGE    FOG       61  61 100 E5        29.77R VSB 1/4
6HR MIN TEMP:  57; 6HR MAX TEMP:  63;

BOOTHVILLE     CLEAR     63  63 100 SE3       29.80R
6HR MIN TEMP:  62; 6HR MAX TEMP:  65;

BELLE CHASSE   PTCLDY    57  57 100 CALM      29.78S FOG
6HR MIN TEMP:  56; 6HR MAX TEMP:  67;

BOGALUSA*      CLOUDY    67  62  85 S8        29.81R
6HR MIN TEMP:  65; 6HR MAX TEMP:  67;

GALLIANO*      CLOUDY    66  62  87 S6        29.79R
6HR MIN TEMP:  64; 6HR MAX TEMP:  67;

NEW ROADS*     CLOUDY    62  62  99 S7        29.76S FOG
6HR MIN TEMP:  58; 6HR MAX TEMP:  62;

GONZALES*      CLOUDY    61  61 100 CALM      29.77R FOG
6HR MIN TEMP:  56; 6HR MAX TEMP:  63;

HAMMOND*       CLOUDY    64  61  88 SE3       29.79R
HOUMA*         MOCLDY    64  64 100 S9        29.77S FOG
PORT FOURCHON* CLOUDY    68  64  88 S8        29.78R

$$

MSZ070-080>082-241300-
SOUTHERN MISSISSIPPI

CITY           SKY/WX    TMP DP  RH WIND       PRES   REMARKS
MCCOMB         CLOUDY    64  59  83 S10       29.78S
6HR MIN TEMP:  59; 6HR MAX TEMP:  64;

GULFPORT       FOG       59  59 100 CALM      29.80R VSB 1/4
6HR MIN TEMP:  58; 6HR MAX TEMP:  66;

BILOXI         FOG       62  61  97 CALM      29.80S VSB 1/4
6HR MIN TEMP:  62; 6HR MAX TEMP:  66;

PASCAGOULA     FOG       55  53  93 CALM      29.80S VSB 1/4
6HR MIN TEMP:  52; 6HR MAX TEMP:  55;


$$

COASTAL OBSERVATIONS
LAKE AND NEARSHORE STATIONS

STATION/POSITION TIME  TEMP    WIND        PRES    WAVE
                       AIR SEA DIR/SP/G            HT/PER
                 (UTC) (F)     (DEG/KT/KT) (MB)    (FT/S)
PASCAGOULA       1148   66     150/  3/  4 1008.8
WAVELAND YACHT   1148   66 67  210/  3/  4 1008.7
GRAND ISLE       1148   69 69  180/  6/  9 1008.7
SOUTHWEST PASS   1142          170/ 12/ 13   N/A
NEW CANAL        1148   63 67   CALM  /  2 1007.8
SHELL BEACH      1148   65 68  170/  2/  3 1008.8

OFFSHORE STATIONS

STATION/POSITION TIME  TEMP    WIND        PRES    WAVE
                       AIR SEA DIR/SP/G            HT/PER
                 (UTC) (F)     (DEG/KT/KT) (MB)    (FT/S)

$$




USA.gov is the U.S. government's official web portal to all federal, state and local government web resources and services.